Fort Lewis, WA
on Saturday, December 15, 2012

Saturday
Previous Day Next Day
Daily Summary
 ActualAverage (KOLM)Record (KOLM)
Temperature
Mean Temperature °F 38°F  
Max Temperature 41°F 44°F 63°F (1980)
Min Temperature 28°F 32°F 17°F (1967)
Degree Days
Heating Degree Days 30 27  
Month to date heating degree days 394  
Since 1 July heating degree days 1839  
Cooling Degree Days 0 0  
Month to date cooling degree days 0  
Year to date cooling degree days 106  
Moisture
Dew Point 34°F   
Average Humidity 89    
Maximum Humidity 98    
Minimum Humidity 79    
Precipitation
Precipitation 0.07 in 0.23 in 2.53 in (1999)
Month to date precipitation 3.83  
Year to date precipitation 46.37  
Wind
Wind Speed 8 mph   
Max Wind Speed 20 mph   
Max Gust Speed 26 mph   
Visibility 10 miles   
Events Rain   

Key: T is trace of precipitation, MM is missing value
Source: NWS Daily Summary
Time(PST)TemperatureDew PointHumidity Pressure Visibility Wind DirectionWind SpeedGust SpeedPrecipitationEvents Conditions
12:58 AM 28.9°F 28.4°F 98% 29.90 in 10.0 miles SSE 5.8 mph - N/A   Clear
1:58 AM 29.5°F 28.9°F 98% 29.89 in 10.0 miles SSW 2.3 mph - N/A   Clear
2:58 AM 28.8°F 28.2°F 98% 29.90 in 10.0 miles SSE 1.2 mph - N/A   Partly Cloudy
3:58 AM 30.4°F 29.8°F 98% 29.87 in 10.0 miles SE 4.6 mph - N/A   Mostly Cloudy
4:58 AM 32.7°F 32.0°F 97% 29.83 in 10.0 miles SE 5.8 mph - N/A   Mostly Cloudy
5:58 AM 35.1°F 30.9°F 85% 29.80 in 10.0 miles SE 6.9 mph - N/A   Clear
6:58 AM 34.7°F 30.9°F 86% 29.79 in 10.0 miles SW 3.5 mph - N/A   Clear
7:23 AM 35.6°F 32.0°F 87% 29.77 in 10.0 miles SSE 8.1 mph - N/A   Mostly Cloudy
7:24 AM 35.6°F 32.0°F 87% 29.77 in 10.0 miles SSE 8.1 mph - N/A   Mostly Cloudy
7:33 AM 35.6°F 32.0°F 87% 29.76 in 10.0 miles ESE 4.6 mph - N/A   Overcast
7:58 AM 35.6°F 32.4°F 88% 29.78 in 10.0 miles ESE 3.5 mph - 0.00 in   Mostly Cloudy
8:13 AM 35.6°F 32.0°F 87% 29.75 in 10.0 miles ESE 4.6 mph - N/A   Mostly Cloudy
8:18 AM 35.6°F 32.0°F 87% 29.75 in 10.0 miles SE 4.6 mph - N/A   Scattered Clouds
8:58 AM 36.9°F 32.9°F 86% 29.75 in 10.0 miles SE 5.8 mph - N/A   Partly Cloudy
9:18 AM 37.4°F 32.0°F 81% 29.72 in 9.0 miles ESE 9.2 mph 18.4 mph N/A   Mostly Cloudy
9:20 AM 37.4°F 32.0°F 81% 29.72 in 9.0 miles ESE 8.1 mph 18.4 mph N/A   Mostly Cloudy
9:58 AM 38.5°F 33.3°F 81% 29.72 in 8.0 miles ESE 15.0 mph - 0.03 in   Light Drizzle
10:10 AM 37.4°F 32.0°F 81% 29.69 in 10.0 miles ESE 12.7 mph - N/A   Overcast
10:13 AM 37.4°F 32.0°F 81% 29.69 in 10.0 miles ESE 9.2 mph - N/A   Light Drizzle
10:29 AM 37.4°F 33.8°F 87% 29.68 in 10.0 miles ESE 11.5 mph 19.6 mph N/A   Mostly Cloudy
10:58 AM 38.3°F 34.3°F 86% 29.67 in 10.0 miles ESE 10.4 mph - 0.01 in   Overcast
11:58 AM 39.4°F 35.2°F 85% 29.61 in 10.0 miles ESE 5.8 mph - N/A   Overcast
12:58 PM 39.9°F 35.1°F 83% 29.57 in 10.0 miles West 4.6 mph - N/A   Overcast
1:12 PM 39.2°F 37.4°F 93% 29.53 in 10.0 miles NNW 3.5 mph - N/A   Light Drizzle
1:27 PM 39.2°F 37.4°F 93% 29.53 in 10.0 miles Variable 3.5 mph - N/A   Light Drizzle
1:32 PM 39.2°F 37.4°F 93% 29.53 in 10.0 miles NW 2.3 mph - N/A   Light Drizzle
1:37 PM 39.2°F 37.4°F 93% 29.53 in 10.0 miles NW 4.6 mph - N/A   Overcast
1:58 PM 39.2°F 37.2°F 93% 29.55 in 10.0 miles NW 5.8 mph - 0.00 in   Overcast
2:58 PM 41.9°F 36.0°F 79% 29.56 in 10.0 miles SW 13.8 mph 19.6 mph N/A   Overcast
3:13 PM 41.0°F 35.6°F 81% 29.55 in 10.0 miles South 19.6 mph 26.5 mph N/A   Overcast
3:48 PM 41.0°F 35.6°F 81% 29.56 in 10.0 miles South 11.5 mph 23.0 mph N/A   Mostly Cloudy
3:58 PM 40.3°F 36.1°F 85% 29.58 in 10.0 miles South 15.0 mph 21.9 mph N/A   Mostly Cloudy
4:18 PM 39.2°F 35.6°F 87% 29.56 in 10.0 miles SSE 18.4 mph 25.3 mph N/A   Light Drizzle
4:32 PM 39.2°F 35.6°F 87% 29.57 in 10.0 miles South 16.1 mph 23.0 mph N/A   Mostly Cloudy
4:38 PM 39.2°F 35.6°F 87% 29.57 in 10.0 miles South 15.0 mph 23.0 mph N/A   Light Drizzle
4:52 PM 39.2°F 35.6°F 87% 29.57 in 10.0 miles SSE 16.1 mph 24.2 mph N/A   Mostly Cloudy
4:58 PM 38.7°F 35.8°F 89% 29.59 in 10.0 miles South 16.1 mph 24.2 mph 0.01 in   Mostly Cloudy
5:08 PM 39.2°F 35.6°F 87% 29.57 in 10.0 miles SSE 13.8 mph - N/A   Scattered Clouds
5:58 PM 37.8°F 35.1°F 90% 29.61 in 10.0 miles South 11.5 mph - N/A   Mostly Cloudy
6:47 PM 37.4°F 35.6°F 93% 29.61 in 10.0 miles South 11.5 mph - N/A   Mostly Cloudy
6:57 PM 37.4°F 35.6°F 93% 29.61 in 10.0 miles South 11.5 mph - N/A Rain Light Rain
6:58 PM 37.6°F 35.1°F 91% 29.63 in 10.0 miles South 11.5 mph - 0.01 in Rain Light Rain
7:17 PM 37.4°F 35.6°F 93% 29.61 in 10.0 miles SSE 16.1 mph - N/A   Overcast
7:22 PM 37.4°F 35.6°F 93% 29.61 in 10.0 miles SSE 12.7 mph - N/A   Overcast
7:58 PM 36.9°F 35.1°F 93% 29.65 in 10.0 miles South 12.7 mph - 0.01 in   Mostly Cloudy
8:58 PM 36.9°F 35.1°F 93% 29.67 in 10.0 miles South 12.7 mph - N/A   Scattered Clouds
9:53 PM 35.6°F 33.8°F 93% 29.68 in 10.0 miles SSE 12.7 mph - N/A   Mostly Cloudy
9:58 PM 36.1°F 34.5°F 94% 29.70 in 10.0 miles SSE 10.4 mph - N/A   Mostly Cloudy
10:18 PM 35.6°F 32.0°F 87% 29.68 in 10.0 miles SSE 12.7 mph - N/A   Scattered Clouds
10:58 PM 34.0°F 32.7°F 95% 29.72 in 10.0 miles SE 11.5 mph - N/A   Clear
11:58 PM 34.0°F 32.5°F 94% 29.74 in 10.0 miles SE 11.5 mph - N/A   Partly Cloudy
Moon Phase
Dec. 15 Dec. 20 Dec. 28 Jan. 04 Jan. 11
Sunrise:07:50 AM (PST) Moon Rise:09:39 AM (PST)12/15
Sunset:04:21 PM (PST) Moon Set:07:41 PM (PST)12/15

Copyright © 2014 The Weather Underground, Inc.